| time (UTC) | temp C | wind direction | speed KPH | gust KPH | rain 1hr cm | rain 24hr cm | rain mn cm | humidity % | barometer mb |
| 20260507064435 | 2 | 277 | 0.0 | 0.0 | 0.13 | 0.23 | 0.23 | 95 | 1010.3 |
| 20260507063932 | 2 | 280 | 0.0 | 0.0 | 0.13 | 0.23 | 0.23 | 95 | 1010.3 |
| 20260507063429 | 2 | 287 | 0.0 | 0.0 | 0.00 | 0.20 | 0.20 | 95 | 1010.2 |
| 20260507062926 | 2 | 246 | 0.0 | 1.6 | 0.00 | 0.20 | 0.20 | 94 | 1010.0 |
| 20260507062423 | 2 | 313 | 1.6 | 1.6 | 0.00 | 0.20 | 0.20 | 95 | 1010.1 |
| 20260507061921 | 2 | 344 | 1.6 | 3.2 | 0.18 | 0.20 | 0.20 | 95 | 1010.1 |
| 20260507061418 | 2 | 307 | 0.0 | 1.6 | 0.18 | 0.20 | 0.20 | 95 | 1010.4 |
| 20260507060917 | 2 | 297 | 1.6 | 1.6 | 0.00 | 0.18 | 0.18 | 93 | 1009.9 |
| 20260507060413 | 2 | 310 | 0.0 | 0.0 | 0.00 | 0.18 | 0.18 | 93 | 1010.0 |
| 20260507055910 | 2 | 294 | 0.0 | 0.0 | 0.00 | 0.18 | 0.18 | 93 | 1010.0 |
| 20260507055405 | 2 | 308 | 3.2 | 3.2 | 0.00 | 0.18 | 0.18 | 93 | 1009.8 |
| 20260507054902 | 2 | 283 | 0.0 | 0.0 | 0.00 | 0.18 | 0.18 | 93 | 1009.7 |
| 20260507054358 | 2 | 289 | 0.0 | 0.0 | 0.00 | 0.18 | 0.18 | 92 | 1009.9 |
| 20260507053855 | 2 | 281 | 0.0 | 0.0 | 0.00 | 0.18 | 0.18 | 91 | 1009.9 |
| 20260507053353 | 2 | 262 | 0.0 | 0.0 | 0.13 | 0.18 | 0.18 | 92 | 1009.8 |
| 20260507052852 | 2 | 282 | 1.6 | 1.6 | 0.13 | 0.18 | 0.18 | 94 | 1009.8 |
| 20260507052348 | 2 | 300 | 0.0 | 1.6 | 0.00 | 0.15 | 0.15 | 95 | 1009.7 |
| 20260507051845 | 2 | 316 | 3.2 | 3.2 | 0.00 | 0.15 | 0.15 | 94 | 1009.7 |
| 20260507051343 | 3 | 226 | 1.6 | 3.2 | 0.00 | 0.15 | 0.15 | 92 | 1009.5 |
| 20260507050834 | 3 | 216 | 3.2 | 3.2 | 0.18 | 0.15 | 0.15 | 91 | 1009.7 |
| 20260507050330 | 3 | 249 | 0.0 | 0.0 | 0.18 | 0.15 | 0.15 | 91 | 1009.5 |
| 20260507045827 | 2 | 283 | 0.0 | 0.0 | 0.18 | 0.15 | 0.15 | 91 | 1009.7 |
| 20260507045324 | 2 | 284 | 0.0 | 0.0 | 0.00 | 0.13 | 0.13 | 91 | 1009.7 |
| 20260507044821 | 2 | 283 | 0.0 | 1.6 | 0.00 | 0.13 | 0.13 | 91 | 1009.7 |
| 20260507044318 | 2 | 288 | 0.0 | 1.6 | 0.18 | 0.13 | 0.13 | 94 | 1010.0 |
| 20260507043814 | 2 | 292 | 0.0 | 0.0 | 0.18 | 0.13 | 0.13 | 94 | 1009.7 |
| 20260507043310 | 2 | 282 | 0.0 | 0.0 | 0.13 | 0.10 | 0.10 | 94 | 1009.6 |
| 20260507042807 | 2 | 307 | 4.8 | 4.8 | 0.30 | 0.10 | 0.10 | 94 | 1009.8 |
| 20260507042306 | 2 | 324 | 4.8 | 4.8 | 0.18 | 0.08 | 0.08 | 94 | 1009.7 |
| 20260507041800 | 2 | 343 | 4.8 | 4.8 | 0.13 | 0.05 | 0.05 | 94 | 1009.8 |
| 20260507041256 | 2 | 352 | 4.8 | 4.8 | 0.13 | 0.05 | 0.05 | 93 | 1009.6 |
| 20260507040753 | 2 | 42 | 4.8 | 9.7 | 0.18 | 0.03 | 0.03 | 93 | 1009.7 |
| 20260507040249 | 2 | 11 | 4.8 | 9.7 | 0.18 | 0.03 | 0.03 | 92 | 1009.6 |
| 20260507035745 | 3 | 32 | 4.8 | 4.8 | 0.00 | 0.00 | 0.00 | 90 | 1009.5 |
| 20260507035241 | 3 | 49 | 8.0 | 11.3 | 0.00 | 0.00 | 0.00 | 87 | 1009.5 |
| 20260507034739 | 4 | 328 | 3.2 | 4.8 | 0.00 | 0.00 | 0.00 | 84 | 1009.3 |
| 20260507034235 | 5 | 161 | 8.0 | 9.7 | 0.00 | 0.00 | 0.00 | 85 | 1009.1 |
| 20260507033734 | 5 | 223 | 3.2 | 3.2 | 0.00 | 0.00 | 0.00 | 83 | 1009.0 |
| 20260507033231 | 5 | 304 | 1.6 | 3.2 | 0.00 | 0.00 | 0.00 | 78 | 1008.9 |
| 20260507032728 | 5 | 319 | 1.6 | 3.2 | 0.00 | 0.00 | 0.00 | 78 | 1008.7 |
| 20260507032224 | 5 | 336 | 4.8 | 8.0 | 0.00 | 0.00 | 0.00 | 77 | 1009.0 |
| 20260507031721 | 5 | 292 | 0.0 | 0.0 | 0.00 | 0.00 | 0.00 | 79 | 1008.9 |
| 20260507031217 | 5 | 302 | 0.0 | 0.0 | 0.00 | 0.00 | 0.00 | 81 | 1008.8 |
| 20260507030714 | 5 | 178 | 3.2 | 4.8 | 0.00 | 0.00 | 0.00 | 83 | 1008.7 |
| 20260507030212 | 5 | 252 | 1.6 | 1.6 | 0.00 | 0.00 | 0.00 | 83 | 1008.6 |
| 20260507025709 | 5 | 269 | 0.0 | 0.0 | 0.00 | 0.00 | 0.00 | 82 | 1008.9 |
| 20260507025206 | 5 | 186 | 3.2 | 3.2 | 0.00 | 0.00 | 0.00 | 82 | 1008.7 |
| 20260507024704 | 5 | 199 | 3.2 | 3.2 | 0.00 | 0.00 | 0.00 | 81 | 1008.7 |
| 20260507024201 | 5 | 248 | 1.6 | 1.6 | 0.00 | 0.00 | 0.00 | 76 | 1008.6 |
| 20260507023656 | 5 | 262 | 0.0 | 0.0 | 0.00 | 0.00 | 0.00 | 78 | 1008.7 |
| 20260507023154 | 5 | 176 | 3.2 | 3.2 | 0.00 | 0.00 | 0.00 | 79 | 1008.8 |
| 20260507022651 | 5 | 287 | 0.0 | 0.0 | 0.00 | 0.00 | 0.00 | 81 | 1008.6 |
| 20260507022146 | 5 | 216 | 1.6 | 3.2 | 0.00 | 0.00 | 0.00 | 79 | 1008.6 |
| 20260507021643 | 6 | 238 | 1.6 | 1.6 | 0.00 | 0.00 | 0.00 | 78 | 1008.4 |
| 20260507021138 | 6 | 287 | 3.2 | 3.2 | 0.00 | 0.00 | 0.00 | 77 | 1008.5 |
| 20260507020637 | 6 | 286 | 1.6 | 1.6 | 0.00 | 0.00 | 0.00 | 76 | 1008.4 |
| 20260507020132 | 6 | 250 | 1.6 | 1.6 | 0.00 | 0.00 | 0.00 | 76 | 1008.5 |
| 20260507015631 | 6 | 219 | 1.6 | 1.6 | 0.00 | 0.00 | 0.00 | 78 | 1008.4 |
| 20260507015128 | 6 | 353 | 1.6 | 3.2 | 0.00 | 0.00 | 0.00 | 76 | 1008.3 |
| 20260507014625 | 6 | 332 | 1.6 | 3.2 | 0.00 | 0.00 | 0.00 | 74 | 1008.1 |
| 20260507014121 | 6 | 306 | 1.6 | 1.6 | 0.00 | 0.00 | 0.00 | 76 | 1008.3 |
| 20260507013618 | 6 | 283 | 0.0 | 0.0 | 0.00 | 0.00 | 0.00 | 79 | 1008.1 |
| 20260507013115 | 5 | 323 | 1.6 | 3.2 | 0.00 | 0.00 | 0.00 | 79 | 1008.4 |
| 20260507012612 | 5 | 277 | 0.0 | 0.0 | 0.00 | 0.00 | 0.00 | 81 | 1008.4 |
| 20260507012107 | 5 | 291 | 1.6 | 3.2 | 0.00 | 0.00 | 0.00 | 83 | 1008.3 |
| 20260507011606 | 5 | 304 | 1.6 | 1.6 | 0.00 | 0.00 | 0.00 | 82 | 1008.3 |
| 20260507011102 | 5 | 278 | 0.0 | 0.0 | 0.00 | 0.00 | 0.00 | 81 | 1008.3 |
| 20260507010556 | 5 | 277 | 1.6 | 1.6 | 0.00 | 0.00 | 0.00 | 81 | 1008.3 |
| 20260507010052 | 5 | 291 | 1.6 | 1.6 | 0.00 | 0.00 | 0.00 | 81 | 1008.5 |
| 20260507005550 | 5 | 287 | 0.0 | 0.0 | 0.00 | 0.00 | 0.00 | 83 | 1008.4 |
| 20260507005046 | 5 | 41 | 3.2 | 3.2 | 0.00 | 0.00 | 0.00 | 83 | 1008.4 |
| 20260507004543 | 5 | 222 | 3.2 | 3.2 | 0.00 | 0.00 | 0.00 | 83 | 1008.0 |
| 20260507004041 | 5 | 216 | 4.8 | 4.8 | 0.00 | 0.00 | 0.00 | 83 | 1008.1 |
| 20260507003536 | 5 | 193 | 1.6 | 3.2 | 0.00 | 0.00 | 0.00 | 82 | 1008.1 |
| 20260507003032 | 5 | 186 | 1.6 | 3.2 | 0.00 | 0.00 | 0.00 | 84 | 1008.4 |
| 20260507002528 | 5 | 250 | 3.2 | 3.2 | 0.00 | 0.00 | 0.00 | 83 | 1008.1 |
| 20260507002019 | 5 | 330 | 1.6 | 1.6 | 0.00 | 0.00 | 0.00 | 83 | 1008.0 |
| 20260507001515 | 5 | 299 | 0.0 | 1.6 | 0.00 | 0.00 | 0.00 | 84 | 1008.1 |
| 20260507001013 | 5 | 139 | 6.4 | 8.0 | 0.00 | 0.00 | 0.00 | 84 | 1008.1 |
| 20260507000509 | 5 | 190 | 3.2 | 3.2 | 0.00 | 0.00 | 0.00 | 85 | 1008.3 |
| 20260507000005 | 5 | 143 | 4.8 | 8.0 | 0.00 | 0.00 | 0.00 | 84 | 1007.9 |
| 20260506235502 | 5 | 162 | 4.8 | 4.8 | 0.00 | 0.00 | 0.00 | 83 | 1007.9 |
| 20260506234958 | 5 | 164 | 9.7 | 11.3 | 0.00 | 0.00 | 0.00 | 82 | 1007.8 |
| 20260506234455 | 5 | 88 | 4.8 | 8.0 | 0.00 | 0.00 | 0.00 | 79 | 1007.8 |
| 20260506233953 | 5 | 21 | 3.2 | 3.2 | 0.00 | 0.00 | 0.00 | 80 | 1007.6 |
| 20260506233449 | 6 | 33 | 3.2 | 3.2 | 0.00 | 0.00 | 0.00 | 78 | 1007.7 |
| 20260506232945 | 5 | 95 | 4.8 | 4.8 | 0.00 | 0.00 | 0.00 | 79 | 1007.7 |
| 20260506232442 | 5 | 322 | 4.8 | 4.8 | 0.00 | 0.00 | 0.00 | 77 | 1007.8 |
| 20260506231938 | 5 | 25 | 4.8 | 4.8 | 0.00 | 0.00 | 0.00 | 76 | 1007.8 |
| 20260506231436 | 6 | 147 | 4.8 | 4.8 | 0.00 | 0.00 | 0.00 | 73 | 1007.8 |
| 20260506230933 | 5 | 174 | 6.4 | 8.0 | 0.00 | 0.00 | 0.00 | 74 | 1007.7 |
| 20260506230429 | 5 | 274 | 4.8 | 8.0 | 0.00 | 0.00 | 0.00 | 75 | 1007.7 |
| 20260506225925 | 5 | 184 | 6.4 | 9.7 | 0.00 | 0.00 | 0.00 | 75 | 1007.5 |
| 20260506225423 | 6 | 134 | 6.4 | 8.0 | 0.00 | 0.00 | 0.00 | 72 | 1007.7 |
| 20260506224920 | 6 | 97 | 4.8 | 8.0 | 0.00 | 0.00 | 0.00 | 73 | 1007.6 |
| 20260506224417 | 5 | 156 | 4.8 | 4.8 | 0.00 | 0.00 | 0.00 | 72 | 1007.6 |
| 20260506223913 | 6 | 155 | 6.4 | 8.0 | 0.00 | 0.00 | 0.00 | 73 | 1007.4 |
| 20260506223409 | 6 | 232 | 1.6 | 3.2 | 0.00 | 0.00 | 0.00 | 74 | 1007.6 |
| 20260506222906 | 5 | 181 | 4.8 | 4.8 | 0.00 | 0.00 | 0.00 | 74 | 1007.3 |
| 20260506222402 | 5 | 192 | 1.6 | 1.6 | 0.00 | 0.00 | 0.00 | 75 | 1007.4 |
| 20260506221900 | 5 | 264 | 1.6 | 1.6 | 0.00 | 0.00 | 0.00 | 75 | 1007.4 |
| 20260506221356 | 6 | 140 | 3.2 | 4.8 | 0.00 | 0.00 | 0.00 | 73 | 1007.4 |
| 20260506220854 | 7 | 293 | 4.8 | 4.8 | 0.00 | 0.00 | 0.00 | 68 | 1007.2 |
| 20260506220350 | 7 | 210 | 4.8 | 8.0 | 0.00 | 0.00 | 0.00 | 61 | 1007.4 |
| 20260506215846 | 7 | 356 | 6.4 | 9.7 | 0.00 | 0.00 | 0.00 | 63 | 1007.0 |
| 20260506215342 | 6 | 328 | 3.2 | 3.2 | 0.00 | 0.00 | 0.00 | 70 | 1007.2 |
| 20260506214838 | 6 | 325 | 1.6 | 1.6 | 0.00 | 0.00 | 0.00 | 75 | 1007.4 |
| 20260506214335 | 6 | 167 | 8.0 | 9.7 | 0.00 | 0.00 | 0.00 | 74 | 1007.0 |
| 20260506213834 | 6 | 257 | 1.6 | 1.6 | 0.00 | 0.00 | 0.00 | 73 | 1007.0 |
| 20260506213330 | 6 | 179 | 4.8 | 8.0 | 0.00 | 0.00 | 0.00 | 73 | 1007.1 |
| 20260506212828 | 6 | 190 | 3.2 | 3.2 | 0.00 | 0.00 | 0.00 | 74 | 1007.0 |
| 20260506212323 | 6 | 128 | 4.8 | 4.8 | 0.00 | 0.00 | 0.00 | 73 | 1007.1 |
| 20260506211819 | 7 | 171 | 4.8 | 4.8 | 0.00 | 0.00 | 0.00 | 73 | 1007.0 |
| 20260506211315 | 6 | 194 | 8.0 | 9.7 | 0.00 | 0.00 | 0.00 | 72 | 1007.0 |
| 20260506210813 | 6 | 175 | 4.8 | 8.0 | 0.00 | 0.00 | 0.00 | 72 | 1006.8 |
| 20260506210309 | 6 | 33 | 4.8 | 4.8 | 0.00 | 0.00 | 0.00 | 75 | 1006.8 |
| 20260506205806 | 6 | 115 | 4.8 | 4.8 | 0.00 | 0.00 | 0.00 | 76 | 1007.0 |
| 20260506205305 | 6 | 146 | 4.8 | 8.0 | 0.00 | 0.00 | 0.00 | 75 | 1006.6 |
| 20260506204758 | 6 | 150 | 9.7 | 11.3 | 0.00 | 0.00 | 0.00 | 74 | 1006.7 |
| 20260506204257 | 6 | 242 | 1.6 | 1.6 | 0.00 | 0.00 | 0.00 | 73 | 1006.7 |
| 20260506203754 | 6 | 259 | 1.6 | 1.6 | 0.00 | 0.00 | 0.00 | 73 | 1006.5 |
| 20260506203251 | 6 | 160 | 6.4 | 9.7 | 0.00 | 0.00 | 0.00 | 73 | 1006.7 |
| 20260506202748 | 6 | 77 | 3.2 | 4.8 | 0.00 | 0.00 | 0.00 | 74 | 1006.5 |
| 20260506202245 | 6 | 239 | 3.2 | 4.8 | 0.00 | 0.00 | 0.00 | 75 | 1006.6 |
| 20260506201741 | 6 | 52 | 4.8 | 4.8 | 0.00 | 0.00 | 0.00 | 75 | 1006.4 |
| 20260506201238 | 6 | 36 | 4.8 | 4.8 | 0.00 | 0.00 | 0.00 | 72 | 1006.3 |
| 20260506200735 | 6 | 268 | 4.8 | 4.8 | 0.00 | 0.00 | 0.00 | 76 | 1006.4 |
| 20260506200232 | 6 | 178 | 4.8 | 8.0 | 0.00 | 0.00 | 0.00 | 78 | 1006.4 |
| 20260506195728 | 6 | 269 | 4.8 | 8.0 | 0.00 | 0.00 | 0.00 | 77 | 1006.4 |
| 20260506195225 | 6 | 242 | 3.2 | 3.2 | 0.00 | 0.00 | 0.00 | 77 | 1006.4 |
| 20260506194722 | 6 | 187 | 8.0 | 9.7 | 0.00 | 0.00 | 0.00 | 76 | 1006.5 |
| 20260506194218 | 5 | 202 | 3.2 | 4.8 | 0.00 | 0.00 | 0.00 | 78 | 1006.4 |
| 20260506193716 | 6 | 84 | 3.2 | 3.2 | 0.00 | 0.00 | 0.00 | 77 | 1006.3 |
| 20260506193213 | 6 | 199 | 3.2 | 4.8 | 0.00 | 0.00 | 0.00 | 77 | 1006.1 |
| 20260506192709 | 6 | 268 | 1.6 | 1.6 | 0.00 | 0.00 | 0.00 | 73 | 1006.2 |
| 20260506192206 | 6 | 277 | 1.6 | 1.6 | 0.00 | 0.00 | 0.00 | 75 | 1006.4 |
| 20260506191657 | 5 | 218 | 3.2 | 3.2 | 0.00 | 0.00 | 0.00 | 77 | 1006.2 |
| 20260506191153 | 5 | 224 | 4.8 | 4.8 | 0.00 | 0.00 | 0.00 | 77 | 1006.4 |
| 20260506190651 | 5 | 164 | 3.2 | 3.2 | 0.00 | 0.00 | 0.00 | 78 | 1006.4 |
| 20260506190147 | 5 | 176 | 3.2 | 4.8 | 0.00 | 0.00 | 0.00 | 78 | 1006.5 |
| 20260506185644 | 5 | 176 | 9.7 | 11.3 | 0.00 | 0.00 | 0.00 | 78 | 1006.0 |
| 20260506185140 | 5 | 192 | 4.8 | 4.8 | 0.00 | 0.00 | 0.00 | 79 | 1006.2 |
| 20260506184638 | 5 | 124 | 3.2 | 3.2 | 0.00 | 0.00 | 0.00 | 80 | 1006.1 |
| 20260506184135 | 5 | 207 | 3.2 | 3.2 | 0.00 | 0.00 | 0.00 | 79 | 1006.2 |
| 20260506183632 | 4 | 213 | 3.2 | 3.2 | 0.00 | 0.00 | 0.00 | 80 | 1005.9 |
| 20260506183128 | 4 | 63 | 4.8 | 4.8 | 0.00 | 0.00 | 0.00 | 79 | 1006.1 |
| 20260506182625 | 4 | 214 | 3.2 | 3.2 | 0.00 | 0.00 | 0.00 | 80 | 1006.3 |
| 20260506182122 | 4 | 214 | 1.6 | 3.2 | 0.00 | 0.00 | 0.00 | 81 | 1006.1 |
| 20260506181620 | 4 | 235 | 1.6 | 1.6 | 0.00 | 0.00 | 0.00 | 81 | 1006.1 |
| 20260506181117 | 4 | 240 | 3.2 | 3.2 | 0.00 | 0.00 | 0.00 | 81 | 1006.0 |
| 20260506180614 | 3 | 218 | 1.6 | 3.2 | 0.00 | 0.00 | 0.00 | 81 | 1005.9 |
| 20260506180110 | 3 | 190 | 3.2 | 3.2 | 0.00 | 0.00 | 0.00 | 81 | 1005.9 |
| 20260506175607 | 3 | 264 | 0.0 | 0.0 | 0.00 | 0.00 | 0.00 | 81 | 1005.9 |
| 20260506175103 | 3 | 210 | 3.2 | 4.8 | 0.00 | 0.00 | 0.00 | 82 | 1005.9 |
| 20260506174602 | 3 | 263 | 1.6 | 1.6 | 0.00 | 0.00 | 0.00 | 81 | 1005.8 |
| 20260506174057 | 3 | 277 | 0.0 | 0.0 | 0.00 | 0.00 | 0.00 | 81 | 1005.8 |
| 20260506173555 | 3 | 230 | 1.6 | 1.6 | 0.00 | 0.00 | 0.00 | 81 | 1006.1 |
| 20260506173052 | 3 | 268 | 0.0 | 0.0 | 0.00 | 0.00 | 0.00 | 82 | 1005.9 |
| 20260506172549 | 3 | 186 | 4.8 | 4.8 | 0.00 | 0.00 | 0.00 | 81 | 1005.8 |
| 20260506172045 | 3 | 240 | 1.6 | 1.6 | 0.00 | 0.00 | 0.00 | 80 | 1005.8 |
| 20260506171543 | 3 | 254 | 0.0 | 1.6 | 0.00 | 0.00 | 0.00 | 81 | 1005.7 |
| 20260506171040 | 3 | 195 | 3.2 | 3.2 | 0.00 | 0.00 | 0.00 | 81 | 1005.6 |
| 20260506170537 | 3 | 48 | 3.2 | 3.2 | 0.00 | 0.00 | 0.00 | 81 | 1005.8 |
| 20260506170030 | 3 | 277 | 0.0 | 1.6 | 0.00 | 0.00 | 0.00 | 81 | 1005.6 |
| 20260506165528 | 3 | 292 | 0.0 | 0.0 | 0.00 | 0.00 | 0.00 | 81 | 1005.6 |
| 20260506165024 | 3 | 259 | 1.6 | 1.6 | 0.00 | 0.00 | 0.00 | 81 | 1005.8 |
| 20260506164520 | 3 | 284 | 0.0 | 0.0 | 0.00 | 0.00 | 0.00 | 81 | 1005.5 |
| 20260506164018 | 3 | 289 | 0.0 | 0.0 | 0.00 | 0.00 | 0.00 | 81 | 1005.5 |
| 20260506163514 | 3 | 304 | 1.6 | 1.6 | 0.00 | 0.00 | 0.00 | 82 | 1005.3 |
| 20260506163010 | 3 | 303 | 0.0 | 1.6 | 0.00 | 0.00 | 0.00 | 82 | 1005.4 |
| 20260506162506 | 3 | 331 | 3.2 | 3.2 | 0.00 | 0.00 | 0.00 | 82 | 1005.5 |
| 20260506162003 | 2 | 302 | 0.0 | 1.6 | 0.00 | 0.00 | 0.00 | 83 | 1005.3 |
| 20260506161500 | 2 | 285 | 0.0 | 0.0 | 0.00 | 0.00 | 0.00 | 84 | 1005.3 |
| 20260506160952 | 2 | 289 | 0.0 | 0.0 | 0.00 | 0.00 | 0.00 | 83 | 1005.2 |
| 20260506160450 | 2 | 307 | 1.6 | 1.6 | 0.00 | 0.00 | 0.00 | 83 | 1005.2 |
| 20260506155947 | 2 | 298 | 0.0 | 1.6 | 0.00 | 0.00 | 0.00 | 83 | 1005.2 |
| 20260506155444 | 2 | 302 | 0.0 | 0.0 | 0.00 | 0.00 | 0.00 | 83 | 1005.0 |
| 20260506153616 | 2 | 306 | 0.0 | 1.6 | 0.00 | 0.00 | 0.00 | 83 | 1005.2 |
| 20260506153114 | 2 | 330 | 3.2 | 3.2 | 0.00 | 0.00 | 0.00 | 83 | 1004.9 |
| 20260506152611 | 2 | 306 | 1.6 | 1.6 | 0.00 | 0.00 | 0.00 | 83 | 1005.2 |
| 20260506152109 | 2 | 326 | 3.2 | 3.2 | 0.00 | 0.00 | 0.00 | 83 | 1004.8 |
| 20260506151607 | 2 | 298 | 1.6 | 1.6 | 0.00 | 0.00 | 0.00 | 82 | 1004.8 |
| 20260506151103 | 2 | 288 | 0.0 | 0.0 | 0.00 | 0.00 | 0.00 | 81 | 1004.9 |
| 20260506150600 | 2 | 107 | 3.2 | 4.8 | 0.00 | 0.00 | 0.00 | 80 | 1005.0 |
| 20260506150057 | 2 | 243 | 0.0 | 1.6 | 0.00 | 0.00 | 0.00 | 79 | 1004.8 |
| 20260506145554 | 2 | 271 | 0.0 | 0.0 | 0.00 | 0.00 | 0.00 | 79 | 1004.8 |
| 20260506145051 | 2 | 282 | 0.0 | 0.0 | 0.00 | 0.00 | 0.00 | 79 | 1004.7 |
| 20260506144548 | 2 | 274 | 0.0 | 0.0 | 0.00 | 0.00 | 0.00 | 79 | 1004.8 |
| 20260506144045 | 2 | 298 | 0.0 | 0.0 | 0.00 | 0.00 | 0.00 | 79 | 1004.7 |
| 20260506143543 | 2 | 285 | 0.0 | 0.0 | 0.00 | 0.00 | 0.00 | 79 | 1004.6 |
| 20260506143041 | 2 | 270 | 0.0 | 0.0 | 0.00 | 0.00 | 0.00 | 79 | 1004.7 |
| 20260506142538 | 2 | 277 | 0.0 | 0.0 | 0.00 | 0.00 | 0.00 | 79 | 1004.7 |
| 20260506142037 | 2 | 285 | 0.0 | 0.0 | 0.00 | 0.00 | 0.00 | 78 | 1004.7 |
| 20260506141534 | 2 | 308 | 1.6 | 1.6 | 0.00 | 0.00 | 0.00 | 78 | 1004.6 |
| 20260506141032 | 2 | 294 | 0.0 | 0.0 | 0.00 | 0.00 | 0.00 | 77 | 1004.6 |
| 20260506140529 | 2 | 297 | 0.0 | 0.0 | 0.00 | 0.00 | 0.00 | 77 | 1004.6 |
| 20260506140026 | 2 | 313 | 1.6 | 1.6 | 0.00 | 0.00 | 0.00 | 76 | 1004.6 |
| 20260506135523 | 2 | 287 | 0.0 | 0.0 | 0.00 | 0.00 | 0.00 | 76 | 1004.5 |
| 20260506135019 | 2 | 292 | 1.6 | 1.6 | 0.00 | 0.00 | 0.00 | 76 | 1004.7 |
| 20260506134515 | 2 | 290 | 0.0 | 0.0 | 0.00 | 0.00 | 0.00 | 76 | 1004.6 |
| 20260506134012 | 2 | 269 | 0.0 | 0.0 | 0.00 | 0.00 | 0.00 | 76 | 1004.5 |
| 20260506133509 | 2 | 282 | 0.0 | 1.6 | 0.00 | 0.00 | 0.00 | 76 | 1004.6 |
| 20260506133006 | 2 | 284 | 0.0 | 0.0 | 0.00 | 0.00 | 0.00 | 77 | 1004.6 |
| 20260506132503 | 3 | 320 | 1.6 | 1.6 | 0.00 | 0.00 | 0.00 | 77 | 1004.7 |
| 20260506132000 | 3 | 223 | 0.0 | 0.0 | 0.00 | 0.00 | 0.00 | 73 | 1004.3 |
| 20260506131457 | 3 | 273 | 0.0 | 0.0 | 0.00 | 0.00 | 0.00 | 73 | 1004.3 |
| 20260506130954 | 3 | 266 | 0.0 | 0.0 | 0.00 | 0.00 | 0.00 | 74 | 1004.5 |
| 20260506130450 | 3 | 284 | 0.0 | 0.0 | 0.00 | 0.00 | 0.00 | 72 | 1004.4 |
| 20260506125948 | 3 | 288 | 0.0 | 0.0 | 0.00 | 0.00 | 0.00 | 73 | 1004.4 |
| 20260506125446 | 3 | 282 | 0.0 | 0.0 | 0.00 | 0.00 | 0.00 | 74 | 1004.6 |
| 20260506124944 | 3 | 287 | 0.0 | 0.0 | 0.00 | 0.00 | 0.00 | 73 | 1004.4 |
| 20260506124441 | 3 | 262 | 0.0 | 0.0 | 0.00 | 0.00 | 0.00 | 72 | 1004.6 |
| 20260506123939 | 3 | 291 | 3.2 | 4.8 | 0.00 | 0.00 | 0.00 | 71 | 1004.2 |
| 20260506123437 | 3 | 329 | 1.6 | 1.6 | 0.00 | 0.00 | 0.00 | 70 | 1004.4 |
| 20260506122934 | 4 | 326 | 1.6 | 1.6 | 0.00 | 0.00 | 0.00 | 70 | 1004.4 |
| 20260506122431 | 5 | 331 | 16.1 | 16.1 | 0.00 | 0.00 | 0.00 | 68 | 1004.3 |
| 20260506121929 | 4 | 341 | 3.2 | 8.0 | 0.00 | 0.00 | 0.00 | 68 | 1004.4 |
| 20260506121426 | 4 | 328 | 4.8 | 8.0 | 0.00 | 0.00 | 0.00 | 68 | 1004.2 |
| 20260506120923 | 4 | 0 | 8.0 | 9.7 | 0.00 | 0.00 | 0.00 | 68 | 1004.2 |
| 20260506120420 | 4 | 273 | 1.6 | 3.2 | 0.00 | 0.00 | 0.00 | 69 | 1004.3 |
| 20260506115917 | 4 | 300 | 1.6 | 3.2 | 0.00 | 0.00 | 0.00 | 70 | 1004.2 |
| 20260506115415 | 4 | 291 | 0.0 | 1.6 | 0.00 | 0.00 | 0.00 | 69 | 1004.3 |
| 20260506114914 | 4 | 274 | 0.0 | 0.0 | 0.00 | 0.00 | 0.00 | 69 | 1004.3 |
| 20260506114411 | 4 | 319 | 0.0 | 1.6 | 0.00 | 0.00 | 0.00 | 68 | 1004.1 |
| 20260506113910 | 4 | 305 | 1.6 | 1.6 | 0.00 | 0.00 | 0.00 | 68 | 1004.2 |
| 20260506113407 | 4 | 157 | 3.2 | 4.8 | 0.00 | 0.00 | 0.00 | 69 | 1004.3 |
| 20260506112903 | 3 | 308 | 4.8 | 4.8 | 0.00 | 0.00 | 0.00 | 70 | 1004.2 |
| 20260506112401 | 3 | 235 | 0.0 | 1.6 | 0.00 | 0.00 | 0.00 | 71 | 1004.1 |
| 20260506111858 | 3 | 276 | 0.0 | 0.0 | 0.00 | 0.00 | 0.00 | 70 | 1004.3 |
| 20260506111356 | 4 | 257 | 0.0 | 0.0 | 0.00 | 0.00 | 0.00 | 70 | 1004.0 |
| 20260506110853 | 4 | 5 | 4.8 | 4.8 | 0.00 | 0.00 | 0.00 | 68 | 1004.4 |
| 20260506110350 | 4 | 355 | 0.0 | 1.6 | 0.00 | 0.00 | 0.00 | 68 | 1004.2 |
| 20260506105847 | 4 | 306 | 3.2 | 4.8 | 0.00 | 0.00 | 0.00 | 67 | 1004.1 |
| 20260506105343 | 4 | 292 | 1.6 | 1.6 | 0.00 | 0.00 | 0.00 | 69 | 1004.3 |
| 20260506104841 | 4 | 210 | 0.0 | 1.6 | 0.00 | 0.00 | 0.00 | 68 | 1004.0 |
| 20260506104338 | 3 | 292 | 3.2 | 3.2 | 0.00 | 0.00 | 0.00 | 69 | 1004.1 |
| 20260506103836 | 4 | 280 | 0.0 | 0.0 | 0.00 | 0.00 | 0.00 | 69 | 1004.2 |
| 20260506103333 | 4 | 359 | 1.6 | 3.2 | 0.00 | 0.00 | 0.00 | 69 | 1004.0 |
| 20260506102831 | 3 | 281 | 3.2 | 4.8 | 0.00 | 0.00 | 0.00 | 70 | 1003.9 |
| 20260506102328 | 3 | 270 | 0.0 | 0.0 | 0.00 | 0.00 | 0.00 | 71 | 1004.0 |
| 20260506101825 | 3 | 248 | 1.6 | 1.6 | 0.00 | 0.00 | 0.00 | 72 | 1004.1 |
| 20260506101321 | 3 | 235 | 1.6 | 1.6 | 0.00 | 0.00 | 0.00 | 73 | 1004.0 |
| 20260506100819 | 3 | 242 | 3.2 | 3.2 | 0.00 | 0.00 | 0.00 | 73 | 1003.8 |
| 20260506100318 | 3 | 227 | 1.6 | 1.6 | 0.00 | 0.00 | 0.00 | 72 | 1003.8 |
| 20260506095816 | 3 | 249 | 1.6 | 1.6 | 0.00 | 0.00 | 0.00 | 71 | 1004.0 |
| 20260506095312 | 3 | 282 | 0.0 | 0.0 | 0.00 | 0.00 | 0.00 | 70 | 1003.8 |
| 20260506094809 | 4 | 246 | 1.6 | 3.2 | 0.00 | 0.00 | 0.00 | 69 | 1003.9 |
| 20260506094308 | 4 | 295 | 0.0 | 0.0 | 0.00 | 0.00 | 0.00 | 67 | 1003.7 |
| 20260506093806 | 4 | 285 | 0.0 | 0.0 | 0.00 | 0.00 | 0.00 | 67 | 1003.7 |
| 20260506093302 | 4 | 309 | 1.6 | 1.6 | 0.00 | 0.00 | 0.00 | 67 | 1003.7 |
| 20260506092801 | 5 | 266 | 0.0 | 1.6 | 0.00 | 0.00 | 0.00 | 65 | 1003.6 |
| 20260506092258 | 5 | 343 | 8.0 | 11.3 | 0.00 | 0.00 | 0.00 | 64 | 1003.4 |
| 20260506091755 | 4 | 346 | 4.8 | 4.8 | 0.00 | 0.00 | 0.00 | 66 | 1003.5 |
| 20260506091252 | 4 | 343 | 3.2 | 3.2 | 0.00 | 0.00 | 0.00 | 66 | 1003.4 |
| 20260506090750 | 4 | 323 | 8.0 | 9.7 | 0.00 | 0.00 | 0.00 | 67 | 1003.4 |
| 20260506090247 | 4 | 340 | 12.9 | 16.1 | 0.00 | 0.00 | 0.00 | 66 | 1003.5 |
| 20260506085744 | 4 | 1 | 8.0 | 11.3 | 0.00 | 0.00 | 0.00 | 67 | 1003.6 |
| 20260506085240 | 4 | 329 | 6.4 | 9.7 | 0.00 | 0.00 | 0.00 | 66 | 1003.5 |
| 20260506084736 | 5 | 324 | 16.1 | 17.7 | 0.00 | 0.00 | 0.00 | 65 | 1003.4 |
| 20260506084232 | 5 | 333 | 12.9 | 17.7 | 0.00 | 0.00 | 0.00 | 65 | 1003.3 |
| 20260506083730 | 5 | 316 | 8.0 | 12.9 | 0.00 | 0.00 | 0.00 | 65 | 1003.2 |
| 20260506083222 | 5 | 329 | 11.3 | 12.9 | 0.00 | 0.00 | 0.00 | 65 | 1003.4 |
| 20260506082719 | 5 | 321 | 11.3 | 14.5 | 0.00 | 0.00 | 0.00 | 64 | 1003.3 |
| 20260506082215 | 5 | 335 | 12.9 | 17.7 | 0.00 | 0.00 | 0.00 | 63 | 1003.3 |
| 20260506081713 | 5 | 342 | 17.7 | 24.1 | 0.00 | 0.00 | 0.00 | 63 | 1003.2 |
| 20260506081210 | 5 | 325 | 12.9 | 14.5 | 0.00 | 0.00 | 0.00 | 61 | 1003.3 |
| 20260506080708 | 5 | 323 | 8.0 | 11.3 | 0.00 | 0.00 | 0.00 | 62 | 1003.2 |
| 20260506080204 | 5 | 296 | 17.7 | 20.9 | 0.00 | 0.00 | 0.00 | 61 | 1003.0 |
| 20260506073148 | 5 | 326 | 14.5 | 17.7 | 0.00 | 0.00 | 0.00 | 65 | 1003.0 |
| 20260506072644 | 5 | 325 | 12.9 | 16.1 | 0.00 | 0.00 | 0.00 | 65 | 1002.9 |
| 20260506072143 | 5 | 351 | 9.7 | 12.9 | 0.00 | 0.00 | 0.00 | 65 | 1002.9 |
| 20260506071640 | 5 | 336 | 9.7 | 9.7 | 0.00 | 0.00 | 0.00 | 64 | 1002.7 |
| 20260506071137 | 5 | 344 | 12.9 | 17.7 | 0.00 | 0.00 | 0.00 | 64 | 1002.8 |
| 20260506070634 | 5 | 330 | 16.1 | 24.1 | 0.00 | 0.00 | 0.00 | 64 | 1002.8 |
| 20260506070131 | 5 | 326 | 14.5 | 20.9 | 0.00 | 0.00 | 0.00 | 63 | 1002.9 |